EZY85TF EGCC-LEPA

Flight info

Callsign EZY85TF
Flight time N/A
Altitude 37000
Route LISTO P18 TELBA L151 KIDLI UN859 SOPIL DCT BALAN DCT EVPOK DCT NARAK DCT GAI DCT LOMRA DCT ROCAN DCT IBRAP DCT LUKEV DCT LORES
Aircraft A320/M-SDE2E3FGHIJ1RWXYZ/LB1

Departure

Time 2026-05-06 16:34
Airport Manchester Airport (EGCC)

Arrival

Time N/A
Airport Palma de Mallorca Airport (LEPA)
Time Latitude Longitude Altitude Speed Heading
2026-05-06 15:45 53.36834 -2.28880 255 ft 0 kts 135°
2026-05-06 16:19 53.36842 -2.28893 255 ft 4 kts 135°
2026-05-06 16:19 53.36857 -2.28920 255 ft 4 kts 140°
2026-05-06 16:19 53.36873 -2.28929 255 ft 4 kts 221°
2026-05-06 16:19 53.36883 -2.28913 255 ft 3 kts 225°
2026-05-06 16:20 53.36868 -2.28938 255 ft 0 kts 225°
2026-05-06 16:22 53.36853 -2.28962 255 ft 7 kts 225°
2026-05-06 16:22 53.36809 -2.29013 255 ft 9 kts 211°
2026-05-06 16:23 53.36746 -2.29034 255 ft 8 kts 149°
2026-05-06 16:23 53.36713 -2.28982 255 ft 7 kts 138°
2026-05-06 16:23 53.36671 -2.28911 255 ft 10 kts 140°
2026-05-06 16:23 53.36604 -2.28849 255 ft 12 kts 127°
2026-05-06 16:24 53.36565 -2.28733 255 ft 7 kts 131°
2026-05-06 16:24 53.36554 -2.28715 255 ft 0 kts 136°
2026-05-06 16:27 53.36552 -2.28712 255 ft 0 kts 136°
2026-05-06 16:27 53.36550 -2.28708 255 ft 1 kts 136°
2026-05-06 16:28 53.36549 -2.28707 255 ft 0 kts 136°
2026-05-06 16:28 53.36548 -2.28705 255 ft 1 kts 136°
2026-05-06 16:28 53.36529 -2.28671 255 ft 8 kts 131°
2026-05-06 16:28 53.36482 -2.28592 255 ft 11 kts 135°
2026-05-06 16:29 53.36416 -2.28496 255 ft 14 kts 149°
2026-05-06 16:29 53.36320 -2.28425 255 ft 16 kts 143°
2026-05-06 16:29 53.36234 -2.28281 255 ft 19 kts 137°
2026-05-06 16:29 53.36135 -2.28116 255 ft 21 kts 139°
2026-05-06 16:30 53.36022 -2.27942 255 ft 23 kts 138°
2026-05-06 16:30 53.35981 -2.27886 255 ft 22 kts 144°
2026-05-06 16:30 53.35771 -2.27871 248 ft 27 kts 186°
2026-05-06 16:30 53.35600 -2.27950 239 ft 25 kts 226°
2026-05-06 16:31 53.35457 -2.28145 236 ft 28 kts 196°
2026-05-06 16:31 53.35270 -2.28229 232 ft 30 kts 218°
2026-05-06 16:31 53.35129 -2.28510 228 ft 33 kts 231°
2026-05-06 16:31 53.34980 -2.28800 226 ft 34 kts 224°
2026-05-06 16:32 53.34845 -2.29039 225 ft 24 kts 223°
2026-05-06 16:32 53.34794 -2.29074 218 ft 0 kts 181°
2026-05-06 16:32 53.34772 -2.29074 218 ft 12 kts 179°
2026-05-06 16:32 53.34677 -2.29000 220 ft 12 kts 125°
2026-05-06 16:33 53.34701 -2.28898 220 ft 10 kts 47°
2026-05-06 16:33 53.34894 -2.28481 231 ft 80 kts 51°
2026-05-06 16:33 53.35372 -2.27502 243 ft 135 kts 51°
2026-05-06 16:34 53.36756 -2.24675 1086 ft 168 kts 52°
2026-05-06 16:34 53.37466 -2.22979 1447 ft 189 kts 71°
2026-05-06 16:34 53.37413 -2.20700 1740 ft 214 kts 115°
2026-05-06 16:34 53.36305 -2.18886 2108 ft 241 kts 156°
2026-05-06 16:35 53.34627 -2.18151 2725 ft 255 kts 167°
2026-05-06 16:35 53.32889 -2.17639 3590 ft 259 kts 171°
2026-05-06 16:35 53.31052 -2.17511 4471 ft 264 kts 182°
2026-05-06 16:35 53.29235 -2.17675 5323 ft 267 kts 183°
2026-05-06 16:36 53.27376 -2.17897 6174 ft 270 kts 184°
2026-05-06 16:36 53.25485 -2.18155 6960 ft 275 kts 185°
2026-05-06 16:36 53.23566 -2.18430 7733 ft 279 kts 186°
2026-05-06 16:36 53.21605 -2.18730 8482 ft 286 kts 186°
2026-05-06 16:37 53.19616 -2.19044 9272 ft 290 kts 186°
2026-05-06 16:37 53.17568 -2.19372 10054 ft 293 kts 186°
2026-05-06 16:37 53.15509 -2.19703 10419 ft 312 kts 187°
2026-05-06 16:37 53.13272 -2.20067 10652 ft 333 kts 187°
2026-05-06 16:38 53.10934 -2.20444 11233 ft 341 kts 187°
2026-05-06 16:38 53.08561 -2.20817 11918 ft 345 kts 187°
2026-05-06 16:38 53.06158 -2.21189 12618 ft 348 kts 187°
2026-05-06 16:38 53.03736 -2.21567 13312 ft 352 kts 187°
2026-05-06 16:39 53.01282 -2.21952 13971 ft 355 kts 187°
2026-05-06 16:39 52.98814 -2.22338 14567 ft 358 kts 187°
2026-05-06 16:39 52.96321 -2.22726 15156 ft 361 kts 187°
2026-05-06 16:39 52.93808 -2.23115 15760 ft 364 kts 187°
2026-05-06 16:40 52.91278 -2.23510 16356 ft 367 kts 187°
2026-05-06 16:40 52.88727 -2.23905 16965 ft 370 kts 187°
2026-05-06 16:40 52.86161 -2.24342 17558 ft 372 kts 191°
2026-05-06 16:40 52.83626 -2.25242 18137 ft 373 kts 195°
2026-05-06 16:41 52.81092 -2.26220 18663 ft 376 kts 195°
2026-05-06 16:41 52.78538 -2.27212 19169 ft 378 kts 195°
2026-05-06 16:41 52.75965 -2.28206 19672 ft 380 kts 195°
2026-05-06 16:41 52.73378 -2.29203 20167 ft 383 kts 195°
2026-05-06 16:42 52.70758 -2.30101 20650 ft 387 kts 189°
2026-05-06 16:42 52.68050 -2.30235 21130 ft 393 kts 177°
2026-05-06 16:42 52.65352 -2.29438 21598 ft 398 kts 165°
2026-05-06 16:42 52.62773 -2.27717 22054 ft 403 kts 153°
2026-05-06 16:43 52.60396 -2.25229 22510 ft 407 kts 148°
2026-05-06 16:43 52.58035 -2.22627 22958 ft 409 kts 148°
2026-05-06 16:43 52.55661 -2.20025 23406 ft 412 kts 148°
2026-05-06 16:43 52.53265 -2.17413 23790 ft 414 kts 148°
2026-05-06 16:44 52.50857 -2.14796 24161 ft 417 kts 148°
2026-05-06 16:44 52.48432 -2.12167 24517 ft 419 kts 148°
2026-05-06 16:44 52.45995 -2.09530 24876 ft 421 kts 148°
2026-05-06 16:44 52.43546 -2.06879 25243 ft 423 kts 148°
2026-05-06 16:45 52.41095 -2.04220 25593 ft 424 kts 148°
2026-05-06 16:45 52.38625 -2.01541 25941 ft 427 kts 149°
2026-05-06 16:45 52.36147 -1.98858 26275 ft 429 kts 149°
2026-05-06 16:45 52.33651 -1.96160 26628 ft 430 kts 149°
2026-05-06 16:46 52.31150 -1.93465 26974 ft 432 kts 149°
2026-05-06 16:46 52.28635 -1.90761 27315 ft 433 kts 149°
2026-05-06 16:46 52.26105 -1.88040 27625 ft 435 kts 149°
2026-05-06 16:46 52.23573 -1.85321 27979 ft 437 kts 149°
2026-05-06 16:47 52.21025 -1.82589 28302 ft 439 kts 149°
2026-05-06 16:47 52.18467 -1.79852 28622 ft 441 kts 149°
2026-05-06 16:47 52.15898 -1.77108 28939 ft 443 kts 149°
2026-05-06 16:47 52.13310 -1.74344 29247 ft 445 kts 149°
2026-05-06 16:48 52.10718 -1.71573 29550 ft 447 kts 149°
2026-05-06 16:48 52.08114 -1.68795 29824 ft 449 kts 149°
2026-05-06 16:48 52.05500 -1.66018 30098 ft 450 kts 149°
2026-05-06 16:48 52.02875 -1.63226 30296 ft 452 kts 149°
2026-05-06 16:49 52.00243 -1.60428 30503 ft 454 kts 149°
2026-05-06 16:49 51.97590 -1.57621 30753 ft 455 kts 149°
2026-05-06 16:49 51.94942 -1.54832 31088 ft 454 kts 149°
2026-05-06 16:49 51.92298 -1.52053 31409 ft 453 kts 149°
2026-05-06 16:50 51.89651 -1.49272 31724 ft 453 kts 149°
2026-05-06 16:50 51.87013 -1.46499 32061 ft 452 kts 149°
2026-05-06 16:50 51.84380 -1.43730 32403 ft 451 kts 149°
2026-05-06 16:50 51.81782 -1.41004 32754 ft 450 kts 149°
2026-05-06 16:51 51.79156 -1.38265 33060 ft 449 kts 151°
2026-05-06 16:51 51.76398 -1.35935 33356 ft 446 kts 160°
2026-05-06 16:51 51.73489 -1.34274 33644 ft 443 kts 165°
2026-05-06 16:51 51.70545 -1.32798 33940 ft 443 kts 165°
2026-05-06 16:52 51.67603 -1.31312 34200 ft 443 kts 165°
2026-05-06 16:52 51.64665 -1.29820 34431 ft 443 kts 165°
2026-05-06 16:52 51.61731 -1.28327 34647 ft 443 kts 165°
2026-05-06 16:52 51.58751 -1.26815 34855 ft 443 kts 165°
2026-05-06 16:53 51.55844 -1.25345 35059 ft 444 kts 165°
2026-05-06 16:53 51.52902 -1.23857 35256 ft 444 kts 165°
2026-05-06 16:53 51.49957 -1.22363 35453 ft 445 kts 163°
2026-05-06 16:53 51.47089 -1.20458 35648 ft 446 kts 157°
2026-05-06 16:54 51.44268 -1.18368 35826 ft 447 kts 157°
2026-05-06 16:54 51.41447 -1.16286 36018 ft 447 kts 158°
2026-05-06 16:54 51.38621 -1.14208 36189 ft 447 kts 158°
2026-05-06 16:54 51.35790 -1.12127 36368 ft 447 kts 158°
2026-05-06 16:55 51.32968 -1.10056 36536 ft 447 kts 157°
2026-05-06 16:55 51.30134 -1.07982 36721 ft 447 kts 157°
2026-05-06 16:55 51.27302 -1.05913 36905 ft 447 kts 157°
2026-05-06 16:56 51.21640 -1.01783 37002 ft 447 kts 158°
2026-05-06 16:56 51.15988 -0.97669 37002 ft 447 kts 157°
2026-05-06 16:57 51.10336 -0.93559 36996 ft 446 kts 157°
2026-05-06 16:57 51.04681 -0.89465 36993 ft 446 kts 157°
2026-05-06 16:58 50.99030 -0.85381 36991 ft 447 kts 157°
2026-05-06 16:58 50.93369 -0.81306 36984 ft 447 kts 157°
2026-05-06 16:59 50.87706 -0.77247 36988 ft 447 kts 157°
2026-05-06 16:59 50.82302 -0.72401 36986 ft 448 kts 149°
2026-05-06 17:00 50.77063 -0.67053 36981 ft 448 kts 148°
2026-05-06 17:00 50.71826 -0.61727 36980 ft 448 kts 149°
2026-05-06 17:01 50.66581 -0.56417 36981 ft 448 kts 149°
2026-05-06 17:01 50.61334 -0.51109 36976 ft 448 kts 149°
2026-05-06 17:02 50.56088 -0.45831 36984 ft 447 kts 149°
2026-05-06 17:02 50.50836 -0.40572 36985 ft 447 kts 149°
2026-05-06 17:03 50.45590 -0.35313 36984 ft 447 kts 149°
2026-05-06 17:03 50.40343 -0.30076 36977 ft 447 kts 149°
2026-05-06 17:04 50.35096 -0.24843 36979 ft 447 kts 149°
2026-05-06 17:04 50.29849 -0.19613 36984 ft 447 kts 149°
2026-05-06 17:05 50.24599 -0.14404 36986 ft 447 kts 149°
2026-05-06 17:05 50.19381 -0.09241 36983 ft 447 kts 149°
2026-05-06 17:06 50.14124 -0.04061 36983 ft 447 kts 149°
2026-05-06 17:06 50.08641 0.00416 36828 ft 443 kts 162°
2026-05-06 17:06 50.05713 0.01694 36982 ft 434 kts 167°
2026-05-06 17:07 50.02806 0.02831 36985 ft 428 kts 167°
2026-05-06 17:07 49.97048 0.05097 36979 ft 425 kts 167°
2026-05-06 17:08 49.91333 0.07359 36986 ft 425 kts 167°
2026-05-06 17:08 49.85610 0.09604 36984 ft 424 kts 167°
2026-05-06 17:09 49.79883 0.11826 36996 ft 425 kts 167°
2026-05-06 17:09 49.74156 0.14058 37008 ft 424 kts 167°
2026-05-06 17:10 49.68409 0.16298 36996 ft 429 kts 167°
2026-05-06 17:10 49.62574 0.18614 37002 ft 437 kts 166°
2026-05-06 17:11 49.56651 0.21012 37004 ft 443 kts 166°
2026-05-06 17:11 49.50690 0.23438 37006 ft 443 kts 166°
2026-05-06 17:12 49.44746 0.25833 36977 ft 445 kts 166°
2026-05-06 17:12 49.38749 0.28223 36975 ft 446 kts 166°
2026-05-06 17:13 49.32745 0.30611 36986 ft 446 kts 166°
2026-05-06 17:13 49.26743 0.33049 36984 ft 446 kts 165°
2026-05-06 17:14 49.20757 0.35583 36976 ft 447 kts 165°
2026-05-06 17:14 49.14771 0.38144 36975 ft 447 kts 165°
2026-05-06 17:15 49.08777 0.40664 36979 ft 447 kts 165°
2026-05-06 17:15 49.03738 0.42763 36953 ft 456 kts 166°
2026-05-06 17:16 48.97572 0.45337 36971 ft 463 kts 166°
2026-05-06 17:16 48.91346 0.47930 36968 ft 465 kts 166°
2026-05-06 17:17 48.85094 0.50530 36959 ft 466 kts 166°
2026-05-06 17:17 48.78844 0.53111 36962 ft 465 kts 166°
2026-05-06 17:18 48.72589 0.55614 36956 ft 465 kts 166°
2026-05-06 17:18 48.66317 0.58046 36960 ft 466 kts 167°
2026-05-06 17:19 48.60040 0.60467 36961 ft 466 kts 167°
2026-05-06 17:19 48.53765 0.62916 36968 ft 466 kts 166°
2026-05-06 17:20 48.47500 0.65393 36973 ft 465 kts 166°
2026-05-06 17:20 48.41249 0.67945 36967 ft 466 kts 166°
2026-05-06 17:21 48.35037 0.70509 36964 ft 466 kts 166°
2026-05-06 17:21 48.28749 0.73063 36965 ft 465 kts 166°
2026-05-06 17:22 48.22529 0.75555 36966 ft 466 kts 166°
2026-05-06 17:22 48.16257 0.78011 36965 ft 466 kts 166°
2026-05-06 17:23 48.09991 0.80453 36967 ft 465 kts 166°
2026-05-06 17:23 48.03722 0.82903 36966 ft 466 kts 166°
2026-05-06 17:24 47.97459 0.85374 36959 ft 466 kts 166°
2026-05-06 17:24 47.91190 0.87828 36956 ft 466 kts 166°
2026-05-06 17:25 47.84916 0.90261 36961 ft 466 kts 166°
2026-05-06 17:25 47.78636 0.92695 36951 ft 466 kts 166°
2026-05-06 17:26 47.72358 0.95117 36959 ft 466 kts 166°
2026-05-06 17:26 47.66080 0.97538 36958 ft 466 kts 166°
2026-05-06 17:27 47.59801 0.99949 36949 ft 466 kts 166°
2026-05-06 17:27 47.53527 1.02359 36944 ft 465 kts 166°
2026-05-06 17:28 47.47256 1.04757 36943 ft 465 kts 167°
2026-05-06 17:28 47.40904 1.06382 36943 ft 463 kts 181°
2026-05-06 17:29 47.34463 1.06245 36947 ft 463 kts 182°
2026-05-06 17:29 47.28058 1.06088 36953 ft 463 kts 182°
2026-05-06 17:30 47.21610 1.05935 36955 ft 464 kts 182°
2026-05-06 17:30 47.15161 1.05787 36951 ft 464 kts 182°
2026-05-06 17:31 47.08707 1.05637 36962 ft 464 kts 182°
2026-05-06 17:31 47.02246 1.05482 36961 ft 464 kts 182°
2026-05-06 17:32 46.95780 1.05250 36960 ft 465 kts 183°
2026-05-06 17:32 46.89318 1.04937 36965 ft 465 kts 183°
2026-05-06 17:33 46.82850 1.04638 36972 ft 465 kts 183°
2026-05-06 17:33 46.76380 1.04369 36972 ft 465 kts 183°
2026-05-06 17:34 46.69914 1.04101 36964 ft 465 kts 183°
2026-05-06 17:34 46.63455 1.03826 36968 ft 464 kts 183°
2026-05-06 17:35 46.56998 1.03558 36962 ft 464 kts 183°
2026-05-06 17:35 46.50553 1.03767 36954 ft 465 kts 172°
2026-05-06 17:36 46.41060 1.06877 36946 ft 467 kts 168°
2026-05-06 17:36 46.34775 1.08961 36946 ft 467 kts 168°
2026-05-06 17:37 46.28396 1.11069 36942 ft 467 kts 168°
2026-05-06 17:37 46.22107 1.13160 36943 ft 467 kts 168°
2026-05-06 17:38 46.15777 1.15267 36933 ft 467 kts 168°
2026-05-06 17:38 46.09454 1.17367 36936 ft 467 kts 168°
2026-05-06 17:39 46.03122 1.19456 36931 ft 466 kts 169°
2026-05-06 17:39 45.96796 1.21532 36929 ft 466 kts 169°
2026-05-06 17:40 45.90470 1.23608 36931 ft 466 kts 169°
2026-05-06 17:40 45.84158 1.25680 36932 ft 466 kts 169°
2026-05-06 17:41 45.77838 1.27738 36936 ft 466 kts 169°
2026-05-06 17:41 45.71516 1.29793 36926 ft 466 kts 169°
2026-05-06 17:42 45.65193 1.31853 36929 ft 466 kts 169°
2026-05-06 17:42 45.58871 1.33918 36929 ft 466 kts 169°
2026-05-06 17:43 45.52555 1.35968 36922 ft 466 kts 169°
2026-05-06 17:43 45.46224 1.38001 36927 ft 466 kts 169°
2026-05-06 17:44 45.39892 1.40035 36929 ft 466 kts 169°
2026-05-06 17:44 45.33608 1.42055 36939 ft 466 kts 169°
2026-05-06 17:45 45.27289 1.44096 36931 ft 466 kts 169°
2026-05-06 17:45 45.20972 1.46121 36930 ft 465 kts 169°
2026-05-06 17:46 45.14653 1.48128 36928 ft 465 kts 169°
2026-05-06 17:46 45.08342 1.50137 36922 ft 465 kts 169°
2026-05-06 17:47 45.02035 1.52155 36932 ft 465 kts 169°
2026-05-06 17:47 44.95722 1.54156 36926 ft 465 kts 170°
2026-05-06 17:48 44.89406 1.56147 36930 ft 465 kts 170°
2026-05-06 17:48 44.83089 1.58145 36936 ft 466 kts 170°
2026-05-06 17:49 44.76762 1.60141 36941 ft 466 kts 170°
2026-05-06 17:49 44.70442 1.62131 36945 ft 465 kts 170°
2026-05-06 17:50 44.64122 1.64115 36945 ft 465 kts 170°
2026-05-06 17:50 44.57802 1.66086 36939 ft 465 kts 170°
2026-05-06 17:51 44.51495 1.68051 36942 ft 464 kts 170°
2026-05-06 17:51 44.45184 1.70020 36943 ft 464 kts 170°
2026-05-06 17:52 44.38890 1.71986 36941 ft 464 kts 170°
2026-05-06 17:52 44.32632 1.73920 36954 ft 463 kts 170°
2026-05-06 17:53 44.26323 1.75755 36958 ft 462 kts 173°
2026-05-06 17:53 44.19983 1.77153 36956 ft 461 kts 175°
2026-05-06 17:54 44.13626 1.78423 36964 ft 461 kts 175°
2026-05-06 17:54 44.07275 1.79770 36976 ft 462 kts 174°
2026-05-06 17:55 44.00932 1.81174 36958 ft 461 kts 174°
2026-05-06 17:55 43.94599 1.82551 36969 ft 459 kts 176°
2026-05-06 17:56 43.88261 1.83371 36985 ft 457 kts 180°
2026-05-06 17:56 43.81912 1.83812 36989 ft 457 kts 181°
2026-05-06 17:57 43.75568 1.84298 36976 ft 457 kts 180°
2026-05-06 17:57 43.69232 1.84911 37000 ft 456 kts 180°
2026-05-06 17:58 43.62895 1.85554 37003 ft 456 kts 180°
2026-05-06 17:58 43.56568 1.86181 36995 ft 455 kts 180°
2026-05-06 17:59 43.50255 1.86786 36997 ft 454 kts 180°
2026-05-06 17:59 43.43953 1.87386 36986 ft 454 kts 180°
2026-05-06 18:00 43.37654 1.87987 36974 ft 453 kts 181°
2026-05-06 18:00 43.31412 1.88586 36984 ft 452 kts 180°
2026-05-06 18:01 43.25137 1.89195 36989 ft 452 kts 181°
2026-05-06 18:01 43.18866 1.89788 36970 ft 452 kts 181°
2026-05-06 18:02 43.12599 1.90379 36979 ft 452 kts 181°
2026-05-06 18:02 43.06326 1.90978 36983 ft 452 kts 181°
2026-05-06 18:03 43.00059 1.91571 36970 ft 451 kts 181°
2026-05-06 18:03 42.93802 1.92167 36997 ft 450 kts 181°
2026-05-06 18:04 42.87564 1.92755 37003 ft 449 kts 181°
2026-05-06 18:04 42.81331 1.93340 37008 ft 449 kts 181°
2026-05-06 18:05 42.75101 1.93931 37006 ft 449 kts 181°
2026-05-06 18:05 42.68873 1.94516 37003 ft 449 kts 180°
2026-05-06 18:06 42.62703 1.96322 36991 ft 456 kts 170°
2026-05-06 18:06 42.57602 1.98170 36968 ft 456 kts 171°
2026-05-06 18:07 42.51465 2.00385 36975 ft 457 kts 171°
2026-05-06 18:07 42.45329 2.02581 36973 ft 456 kts 171°
2026-05-06 18:08 42.39192 2.04771 36958 ft 457 kts 171°
2026-05-06 18:08 42.33049 2.06969 36948 ft 456 kts 171°
2026-05-06 18:09 42.26914 2.09153 36960 ft 456 kts 171°
2026-05-06 18:09 42.20778 2.11326 36952 ft 455 kts 171°
2026-05-06 18:10 42.14641 2.13492 36930 ft 456 kts 171°
2026-05-06 18:10 42.08513 2.15665 36952 ft 455 kts 171°
2026-05-06 18:11 42.02396 2.17813 36959 ft 455 kts 171°
2026-05-06 18:11 41.96283 2.19960 36932 ft 454 kts 172°
2026-05-06 18:12 41.90170 2.22107 36936 ft 454 kts 172°
2026-05-06 18:12 41.84069 2.24238 36958 ft 453 kts 172°
2026-05-06 18:13 41.77964 2.26370 36965 ft 453 kts 172°
2026-05-06 18:13 41.71859 2.28510 36939 ft 453 kts 172°
2026-05-06 18:14 41.65765 2.30645 36948 ft 452 kts 172°
2026-05-06 18:14 41.59718 2.32751 36953 ft 452 kts 172°
2026-05-06 18:15 41.53602 2.34871 36930 ft 452 kts 172°
2026-05-06 18:15 41.47559 2.36966 36941 ft 451 kts 172°
2026-05-06 18:16 41.41477 2.39064 36953 ft 451 kts 172°
2026-05-06 18:16 41.35403 2.41167 36956 ft 451 kts 172°
2026-05-06 18:17 41.29334 2.43267 36936 ft 451 kts 172°
2026-05-06 18:17 41.23288 2.45357 36941 ft 439 kts 173°
2026-05-06 18:18 41.17465 2.47371 36943 ft 429 kts 173°
2026-05-06 18:18 41.11677 2.49334 36623 ft 428 kts 173°
2026-05-06 18:19 41.08790 2.50313 36340 ft 428 kts 173°
2026-05-06 18:19 41.05911 2.51295 36088 ft 427 kts 173°
2026-05-06 18:19 41.03032 2.52282 35836 ft 427 kts 174°
2026-05-06 18:19 41.00162 2.53266 35584 ft 425 kts 174°
2026-05-06 18:20 40.97305 2.54246 35330 ft 423 kts 174°
2026-05-06 18:20 40.94463 2.55216 35095 ft 420 kts 174°
2026-05-06 18:20 40.91641 2.56178 34841 ft 417 kts 174°
2026-05-06 18:20 40.88852 2.57129 34377 ft 414 kts 175°
2026-05-06 18:21 40.86073 2.58074 33849 ft 411 kts 175°
2026-05-06 18:21 40.83317 2.59012 33337 ft 407 kts 175°
2026-05-06 18:21 40.80588 2.59938 32861 ft 403 kts 175°
2026-05-06 18:21 40.77885 2.60854 32377 ft 399 kts 175°
2026-05-06 18:22 40.75208 2.61761 31910 ft 396 kts 175°
2026-05-06 18:22 40.72553 2.62664 31442 ft 392 kts 175°
2026-05-06 18:22 40.69929 2.63552 30973 ft 389 kts 175°
2026-05-06 18:22 40.67321 2.64432 30532 ft 385 kts 175°
2026-05-06 18:23 40.64731 2.65305 30095 ft 382 kts 175°
2026-05-06 18:23 40.62170 2.66171 29608 ft 378 kts 174°
2026-05-06 18:23 40.59642 2.67026 29195 ft 372 kts 174°
2026-05-06 18:23 40.57151 2.67865 28773 ft 367 kts 175°
2026-05-06 18:24 40.54695 2.68692 28377 ft 362 kts 175°
2026-05-06 18:24 40.52270 2.69504 27977 ft 357 kts 175°
2026-05-06 18:24 40.49892 2.70466 27581 ft 361 kts 166°
2026-05-06 18:24 40.47630 2.71951 27157 ft 365 kts 160°
2026-05-06 18:25 40.45449 2.73540 26753 ft 362 kts 159°
2026-05-06 18:25 40.43258 2.75142 26311 ft 360 kts 159°
2026-05-06 18:25 40.41077 2.76733 25889 ft 357 kts 159°
2026-05-06 18:25 40.38879 2.78329 25448 ft 356 kts 159°
2026-05-06 18:26 40.36714 2.79895 25018 ft 355 kts 159°
2026-05-06 18:26 40.34581 2.81436 24574 ft 354 kts 159°
2026-05-06 18:26 40.32380 2.82846 24069 ft 349 kts 169°
2026-05-06 18:26 40.30034 2.83366 23540 ft 337 kts 187°
2026-05-06 18:27 40.27772 2.82904 22999 ft 325 kts 204°
2026-05-06 18:27 40.26116 2.81986 22599 ft 321 kts 210°
2026-05-06 18:27 40.25510 2.81621 22451 ft 321 kts 210°
2026-05-06 18:27 40.23491 2.80405 21975 ft 319 kts 210°
2026-05-06 18:28 40.21477 2.79193 21504 ft 318 kts 209°
2026-05-06 18:28 40.19481 2.77996 20840 ft 315 kts 209°
2026-05-06 18:28 40.17494 2.76802 20098 ft 313 kts 209°
2026-05-06 18:28 40.15521 2.75617 19405 ft 311 kts 209°
2026-05-06 18:29 40.13566 2.74444 18747 ft 308 kts 209°
2026-05-06 18:29 40.11625 2.73276 18089 ft 306 kts 209°
2026-05-06 18:29 40.09844 2.72207 17426 ft 304 kts 208°
2026-05-06 18:30 40.09149 2.71790 17180 ft 303 kts 208°
2026-05-06 18:30 40.07235 2.70643 16509 ft 301 kts 208°